Location: Castiglione Fibocchi
(43.5333°N, 11.7667°E)
Time: 18:12:31
(UTC+00:00)

ADEOS II - Pass Details

Date: 15 August 2020
Orbit: 798 x 802 km, 98.5° (Epoch: 18 September)

Event Time Altitude Azimuth Distance (km) Brightness Sun altitude
Rises 00:26:05 0° 28° (NNE) 3,317 6.4 -30.4°
Reaches altitude 10° 00:29:02 10° 45° (NE) 2,381 5.3 -30.2°
Maximum altitude 00:32:53 20° 92° (E) 1,763 4.0 -30.0°
Enters shadow 00:33:36 20° 103° (ESE) 1,786 3.9 -29.9°
